* Astronomy

Members Login
Username 
 
Password 
    Remember Me  
Post Info TOPIC: Asteroid 2012 UT136


L

Posts: 131433
Date:
Asteroid 2012 UT136
Permalink  
 


Orbital elements:
2012 UT136                                               Earth MOID = 0.1213 AU
Epoch 2012 Sept. 30.0 TT = JDT 2456200.5                MPC
M 292.57927              (2000.0)            P               Q
n   0.57989654     Peri.   21.71224     -0.84130320     -0.52923210
a   1.4241936      Node   125.86156     +0.47381727     -0.82000723
e   0.5791780      Incl.    7.80805     +0.26020401     -0.21794847
P   1.70           H   21.1           G   0.15           U   9

MPEC 2012 - U85



__________________
Page 1 of 1  sorted by
 
Quick Reply

Please log in to post quick replies.



Create your own FREE Forum
Report Abuse
Powered by ActiveBoard